[[{"header":{"parameterUnit":"m.s-1","parameterCategory":1,"la1":30.2992,"la2":30.254,"lo1":-89.0895,"lo2":-89.0443,"dy":0.0025,"dx":0.0025,"nx":19,"ny":19,"refTime":"2026-04-04T09:00:00:Z","depth":0,"parameterNumber":2,"parameterNumberName":"U-component_of_WINDS"},"data":[0,0,0,-3.6812,-3.6815,-3.6967,-3.6967,-3.7157,-3.7159,0,0,0,0,0,0,0,0,0,0,0,-3.6763,-3.6765,-3.6812,-3.6815,-3.6966,-3.6967,-3.7157,-3.7159,0,0,0,0,0,0,0,0,0,0,0,-3.6763,-3.6764,-3.6766,-3.6816,-3.6966,-3.6967,-3.7156,-3.7044,0,0,0,0,0,0,0,0,0,0,-3.6898,-3.6849,-3.6764,-3.6766,-3.6817,-3.6966,-3.6967,-3.7038,-3.7051,-3.7087,0,-3.7116,0,-3.714,-3.7171,-3.7172,0,0,0,-3.6818,-3.6838,-3.6883,-3.6766,-3.6818,-3.6966,-3.6899,-3.7045,-3.7059,-3.7103,-3.7119,-3.7126,-3.7144,-3.7172,-3.7173,-3.7367,-3.7368,0,0,-3.681,-3.6789,-3.6873,-3.6891,-3.6866,-3.6894,-3.6904,-3.7054,-3.707,-3.712,-3.7131,-3.7147,-3.7174,-3.7175,-3.7366,-3.7367,0,0,0,-3.6784,-3.6783,-3.6823,-3.6883,-3.6911,-3.6899,-3.691,-3.7064,-3.7079,-3.7133,-3.7149,-3.7175,-3.7177,-3.7366,-3.7367,-3.7382,0,0,0,-3.6779,-3.6768,-3.682,-3.6808,-3.6908,-3.6989,-3.6916,-3.7068,-3.7086,-3.7148,-3.7175,-3.7179,-3.7365,-3.7366,-3.738,-3.7392,0,0,0,-3.6755,-3.6765,-3.6785,-3.6807,-3.6871,-3.6987,-3.7011,-3.7072,-3.7096,-3.7172,-3.7179,-3.7364,-3.7366,-3.7378,-3.7389,-3.7436,0,0,0,-3.6723,-3.6797,-3.6785,-3.6875,-3.6869,-3.6996,-3.701,-3.7105,-3.7173,-3.7176,-3.7365,-3.7367,-3.7377,-3.7387,-3.7433,-3.7469,-3.7483,0,0,-3.6805,-3.6806,-3.6861,-3.6855,-3.6977,-3.6974,-3.7101,-3.7183,-3.7211,-3.7314,-3.7319,-3.7381,-3.7389,-3.7435,-3.7571,-3.7581,0,0,0,-3.688,-3.6919,-3.6956,-3.7019,-3.7084,-3.7141,-3.7206,-3.7238,-3.7326,-3.7259,-3.7413,-3.7418,-3.7446,-3.7464,-3.7473,-3.7498,-3.7375,-3.7375,-3.7374,-3.6963,-3.6995,-3.7087,-3.7138,-3.7199,-3.7267,-3.732,-3.7374,-3.7388,-3.7424,-3.7453,-3.7532,-3.7552,-3.7559,-3.7585,-3.7478,-3.7478,-3.7478,-3.7478,-3.7084,-3.7143,-3.7162,-3.7258,-3.7292,-3.7374,-3.7444,-3.7452,-3.7534,-3.7512,-3.7538,-3.7508,-3.7569,-3.7594,-3.7479,-3.7479,-3.7479,-3.7479,-3.7479,-3.7139,-3.7172,-3.721,-3.7305,-3.7376,-3.7427,-3.7504,-3.7534,-3.7562,-3.7588,-3.7622,-3.7622,-3.7624,-3.7603,-3.7604,-3.7604,-3.7604,-3.7604,-3.7604,-3.7179,-3.7221,-3.7282,-3.736,-3.7405,-3.7468,-3.7541,-3.7587,-3.7645,-3.766,-3.766,-3.767,-3.7571,-3.7543,-3.7609,-3.7608,-3.7607,-3.7607,-3.7607,-3.7285,-3.7266,-3.736,-3.7406,-3.75,-3.7569,-3.7607,-3.7698,-3.7741,-3.7779,-3.7785,-3.7707,-3.7711,-3.7704,-3.7681,-3.7779,-3.7779,-3.7779,-3.7779,-3.7328,-3.7335,-3.7438,-3.7509,-3.7582,-3.7627,-3.7734,-3.7792,-3.785,-3.7879,-3.787,-3.7844,-3.7836,-3.7844,-3.7834,-3.7813,-3.7942,-3.7943,-3.7943,-3.7394,-3.7409,-3.7493,-3.7548,-3.7625,-3.7691,-3.7793,-3.7875,-3.7937,-3.795,-3.7902,-3.7895,-3.7853,-3.7838,-3.7844,-3.7828,-3.7791,0,0]},{"header":{"parameterUnit":"m.s-1","parameterCategory":1,"la1":30.2992,"la2":30.254,"lo1":-89.0895,"lo2":-89.0443,"dy":0.0025,"dx":0.0025,"nx":19,"ny":19,"refTime":"2026-04-04T09:00:00:Z","depth":0,"parameterNumber":3,"parameterNumberName":"V-component_of_WINDS"},"data":[0,0,0,3.1517,3.1519,3.1597,3.1598,3.168,3.1681,0,0,0,0,0,0,0,0,0,0,0,3.1485,3.1485,3.1517,3.1519,3.1597,3.1598,3.168,3.1681,0,0,0,0,0,0,0,0,0,0,0,3.1485,3.1485,3.1485,3.1519,3.1597,3.1598,3.168,3.1627,0,0,0,0,0,0,0,0,0,0,3.1553,3.1514,3.1485,3.1485,3.152,3.1597,3.1598,3.1624,3.163,3.1637,0,3.1643,0,3.1663,3.1685,3.1686,0,0,0,3.1525,3.151,3.154,3.1485,3.152,3.1597,3.1564,3.1628,3.1634,3.1645,3.1644,3.1648,3.1665,3.1686,3.1686,3.1714,3.1714,0,0,3.1521,3.1493,3.1535,3.1543,3.1532,3.1561,3.1566,3.1632,3.1629,3.1645,3.165,3.1666,3.1686,3.1687,3.1715,3.1714,0,0,0,3.1504,3.149,3.1519,3.154,3.1555,3.1563,3.1569,3.1626,3.1638,3.1651,3.1667,3.1687,3.1687,3.1715,3.1715,3.1682,0,0,0,3.1502,3.148,3.1516,3.15,3.1554,3.1592,3.1561,3.1633,3.1641,3.1667,3.1687,3.1688,3.1715,3.1715,3.1683,3.1671,0,0,0,3.1483,3.1478,3.1487,3.1498,3.1532,3.1591,3.1607,3.1636,3.1651,3.1686,3.1688,3.1715,3.1715,3.1684,3.1673,3.1672,0,0,0,3.1453,3.1453,3.1485,3.1492,3.1531,3.1571,3.1607,3.1638,3.1664,3.1687,3.1715,3.1715,3.1685,3.1674,3.1673,3.1667,3.1662,0,0,3.1438,3.1451,3.1457,3.1488,3.1516,3.1561,3.1584,3.1632,3.1659,3.1694,3.1695,3.1683,3.1673,3.1672,3.164,3.1636,0,0,0,3.1442,3.1446,3.146,3.1485,3.1524,3.1556,3.1605,3.1623,3.1655,3.1672,3.1683,3.1677,3.1678,3.1676,3.1673,3.1676,3.1712,3.1713,3.1713,3.138,3.1418,3.1431,3.1479,3.1502,3.1554,3.1576,3.1609,3.1637,3.1639,3.165,3.1627,3.1624,3.1621,3.1624,3.1649,3.1649,3.1649,3.1649,3.1361,3.1374,3.1416,3.1443,3.1483,3.1506,3.1556,3.1575,3.1602,3.1621,3.1623,3.1641,3.1615,3.162,3.1647,3.1647,3.1647,3.1648,3.1648,3.1326,3.1339,3.1363,3.1405,3.1433,3.1481,3.1506,3.154,3.1571,3.1574,3.159,3.1591,3.1597,3.1579,3.1579,3.1579,3.1579,3.1579,3.1579,3.1279,3.1308,3.1326,3.137,3.1392,3.1425,3.1479,3.15,3.1533,3.1556,3.1556,3.1585,3.1606,3.1611,3.1578,3.1578,3.1578,3.1578,3.1578,3.1248,3.1262,3.129,3.1312,3.1368,3.1394,3.1438,3.1481,3.1503,3.1515,3.1544,3.1553,3.1568,3.1571,3.1576,3.1535,3.1535,3.1535,3.1535,3.1219,3.1231,3.1269,3.1303,3.134,3.1384,3.1414,3.1456,3.15,3.1517,3.1528,3.1536,3.1538,3.1551,3.1555,3.156,3.1517,3.1517,3.1517,3.1203,3.122,3.124,3.1287,3.1334,3.1372,3.1403,3.1439,3.1492,3.1517,3.1531,3.1532,3.1546,3.1549,3.1573,3.1578,3.1587,0,0]}]]